Location: Chimay
(50.0486°N, 4.3171°E)
Time: 20:56:01
(UTC+00:00)

USA 267 - Pass Details

Date: 08 August 2020
Orbit: 1102 x 1106 km, 123.0° (Epoch: 18 September)

Event Time Altitude Azimuth Distance (km) Brightness Sun altitude
Rises 21:22:40 0° 58° (ENE) 3,928 6.1 -16.8°
Reaches altitude 10° 21:25:09 10° 58° (ENE) 2,968 5.5 -17.0°
Maximum altitude 21:31:43 80° 332° (NNW) 1,123 3.4 -17.6°
Drops below altitude 10° 21:38:16 10° 247° (WSW) 2,962 5.6 -18.2°
Sets 21:40:44 0° 246° (WSW) 3,918 6.3 -18.4°
